This is the latest recevied weather packets stored in our database for station/object DB0BGL. If no packets are shown the sender has not sent any weather packets the latest 10 day(s).
| Time | Temp. | Humidity | Pressure | Rain* | Wind** | Luminosity | Snow |
|---|---|---|---|---|---|---|---|
| 1788441850 | 16.67° C | 58% | 0 hPa | 0 mm | - | - | - |
| 1788441250 | 17.22° C | 61% | 0 hPa | 0 mm | - | - | - |
| 1788440653 | 17.22° C | 60% | 0 hPa | 0 mm | - | - | - |
| 1788440050 | 17.78° C | 59% | 0 hPa | 0 mm | - | - | - |
| 1788439473 | 17.78° C | 57% | 0 hPa | 0 mm | - | - | - |
| 1788438851 | 18.89° C | 54% | 0 hPa | 0 mm | - | - | - |
| 1788438247 | 19.44° C | 51% | 0 hPa | 0 mm | - | - | - |
| 1788437646 | 18.33° C | 54% | 0 hPa | 0 mm | - | - | - |
| 1788437046 | 17.22° C | 100% | 0 hPa | 0 mm | - | - | - |
| 1788436445 | 16.11° C | 57% | 0 hPa | 0 mm | - | - | - |
| 1788435844 | 16.67° C | 48% | 0 hPa | 0 mm | - | - | - |
| 1788435244 | 16.67° C | 49% | 0 hPa | 0 mm | - | - | - |
| 1788434643 | 15° C | 54% | 0 hPa | 0 mm | - | - | - |
| 1788434043 | 15.56° C | 52% | 0 hPa | 0 mm | - | - | - |
| 1788433481 | 15.56° C | 52% | 0 hPa | 0 mm | - | - | - |
| 1788433442 | 15.56° C | 52% | 0 hPa | 0 mm | - | - | - |
| 1788432842 | 15° C | 55% | 0 hPa | 0 mm | - | - | - |
| 1788432241 | 15° C | 56% | 0 hPa | 0 mm | - | - | - |
| 1788431640 | 16.11° C | 54% | 0 hPa | 0 mm | - | - | - |
| 1788431040 | 16.67° C | 52% | 0 hPa | 0 mm | - | - | - |
| 1788430439 | 16.11° C | 52% | 0 hPa | 0 mm | - | - | - |
| 1788429839 | 16.11° C | 55% | 0 hPa | 0 mm | - | - | - |
| 1788429238 | 16.67° C | 48% | 0 hPa | 0 mm | - | - | - |
| 1788428649 | 17.78° C | 49% | 0 hPa | 0 mm | - | - | - |
| 1788428037 | 16.11° C | 56% | 0 hPa | 0 mm | - | - | - |
* Rain latest hour (hover to see other rain measurements)
** Current wind speed in m/s (hover to see current wind gust speed)